Location: Warszawa
(52.2500°N, 21.0000°E)
Time: 22:52:42
(UTC+01:00)

A-11 Canister half - Pass Details

Date: 08 February 2023
Orbit: 1526 x 1682 km, 47.3° (Epoch: 22 March)

Event Time Altitude Azimuth Distance (km) Brightness Sun altitude
Exits shadow 04:10:54 21° 202° (SSW) 2,906 10.1 -27.0°
Maximum altitude 04:16:24 40° 148° (SSE) 2,115 9.8 -26.2°
Drops below altitude 10° 04:24:51 10° 83° (E) 3,720 12.1 -24.9°
Sets 04:28:08 0° 76° (ENE) 4,720 12.9 -24.4°
